Weather History for K65S - January, 2014

Change the Weather History Date:

Monday, January 13, 2014

  Actual Average (KSZT) Record (KSZT)
Temperature  
Mean Temperature 42 °F -  
Max Temperature 46 °F 32 °F 32 °F (2015)
Min Temperature 37 °F 22 °F 28 °F (2015)
Degree Days  
Heating Degree Days 24    
Moisture  
Dew Point 33 °F    
Average Humidity 67    
Maximum Humidity 87    
Minimum Humidity 57    
Precipitation  
Precipitation 0.00 in - - ()
Sea Level Pressure  
Sea Level Pressure 30.11 in    
Wind  
Wind Speed 10 mph (SW)    
Max Wind Speed 18 mph    
Max Gust Speed 26 mph    
Visibility 10 miles    
Events      
Averages and records for this station are not official NWS values.
T = Trace of Precipitation, MM = Missing Value Source: NWS Daily Summary

Daily Weather History Graph

Daily Weather History Graph

Search for Another Location

Airport or City:

Trip Planner

Search our weather history database for the weather conditions in past years. The results will help you decide how hot, cold, wet, or windy it might be!

Date:

Astronomy

Jan. 13, 2014 Rise Set
Actual Time 7:34 AM PST 4:14 PM PST
Civil Twilight 6:58 AM PST 4:50 PM PST
Nautical Twilight 6:18 AM PST 5:29 PM PST
Astronomical Twilight 5:41 AM PST 6:07 PM PST
Moon 2:34 PM PST (1/13) 5:24 AM PST (1/13)
Length of Visible Light 9h 52m
Length of Day
8h 40m
Waxing Gibbous, 95% of the Moon is Illuminated
Jan 13
Waxing Gibbous
Jan 15
Full
Jan 23
Last Quarter
Jan 30
New
Feb 6
First Quarter

Hourly Weather History & Observations

Time (PST) Temp. Windchill Dew Point Humidity Pressure Visibility Wind Dir Wind Speed Gust Speed Precip Events Conditions
12:15 AM 39.2 °F 34.2 °F 35.6 °F 87% 29.94 in 10.0 mi West 6.9 mph - N/A   Overcast
12:35 AM 42.8 °F 35.4 °F 33.8 °F 70% 29.94 in 10.0 mi SSW 15.0 mph 24.2 mph N/A   Overcast
12:55 AM 42.8 °F 35.8 °F 33.8 °F 70% 29.94 in 10.0 mi SSW 13.8 mph 21.9 mph N/A   Overcast
1:15 AM 42.8 °F 36.6 °F 33.8 °F 70% 29.94 in 10.0 mi SSW 11.5 mph 18.4 mph N/A   Mostly Cloudy
1:35 AM 42.8 °F 38.6 °F 33.8 °F 70% 29.95 in 10.0 mi SW 6.9 mph 18.4 mph N/A   Mostly Cloudy
1:55 AM 42.8 °F 36.2 °F 33.8 °F 70% 29.95 in 10.0 mi SSW 12.7 mph 20.7 mph N/A   Overcast
2:15 AM 42.8 °F 36.2 °F 33.8 °F 70% 29.96 in 10.0 mi SW 12.7 mph 23.0 mph N/A   Overcast
2:35 AM 42.8 °F 37.0 °F 33.8 °F 70% 29.96 in 10.0 mi SW 10.4 mph 20.7 mph N/A   Overcast
2:55 AM 42.8 °F 37.5 °F 33.8 °F 70% 29.97 in 10.0 mi SSW 9.2 mph 21.9 mph N/A   Overcast
3:15 AM 42.8 °F 36.6 °F 33.8 °F 70% 29.97 in 10.0 mi SSW 11.5 mph 20.7 mph N/A   Overcast
3:35 AM 42.8 °F 35.8 °F 33.8 °F 70% 29.98 in 10.0 mi South 13.8 mph 25.3 mph N/A   Overcast
3:55 AM 42.8 °F 36.6 °F 33.8 °F 70% 29.98 in 10.0 mi SSW 11.5 mph 18.4 mph N/A   Overcast
4:15 AM 42.8 °F 37.5 °F 33.8 °F 70% 29.98 in 10.0 mi South 9.2 mph 19.6 mph N/A   Overcast
4:35 AM 42.8 °F 35.4 °F 33.8 °F 70% 29.97 in 10.0 mi SSW 15.0 mph 26.5 mph N/A   Overcast
4:55 AM 42.8 °F 36.2 °F 33.8 °F 70% 29.97 in 10.0 mi SSW 12.7 mph 18.4 mph N/A   Overcast
5:15 AM 42.8 °F 36.2 °F 33.8 °F 70% 29.97 in 10.0 mi SSW 12.7 mph 20.7 mph N/A   Overcast
5:35 AM 42.8 °F 37.5 °F 32.0 °F 66% 29.97 in 10.0 mi SSW 9.2 mph 19.6 mph N/A   Overcast
5:55 AM 42.8 °F 37.5 °F 32.0 °F 66% 29.97 in 10.0 mi SW 9.2 mph 18.4 mph N/A   Overcast
6:15 AM 42.8 °F 37.5 °F 32.0 °F 66% 29.97 in 10.0 mi SW 9.2 mph 16.1 mph N/A   Overcast
6:35 AM 42.8 °F 36.6 °F 32.0 °F 66% 29.97 in 10.0 mi SSW 11.5 mph 24.2 mph N/A   Overcast
6:55 AM 42.8 °F 35.4 °F 32.0 °F 66% 29.97 in 10.0 mi SSW 15.0 mph 21.9 mph N/A   Overcast
7:15 AM 42.8 °F 36.6 °F 32.0 °F 66% 29.97 in 10.0 mi SSW 11.5 mph 23.0 mph N/A   Overcast
7:35 AM 42.8 °F 37.0 °F 32.0 °F 66% 29.99 in 10.0 mi SW 10.4 mph 24.2 mph N/A   Overcast
7:55 AM 42.8 °F 36.2 °F 32.0 °F 66% 30.00 in 10.0 mi SW 12.7 mph 25.3 mph N/A   Overcast
8:15 AM 42.8 °F 37.0 °F 32.0 °F 66% 30.01 in 10.0 mi SSW 10.4 mph 17.3 mph N/A   Overcast
8:35 AM 44.6 °F 39.7 °F 32.0 °F 61% 30.02 in 10.0 mi SSW 9.2 mph 21.9 mph N/A   Overcast
8:55 AM 44.6 °F 39.2 °F 32.0 °F 61% 30.04 in 10.0 mi SSW 10.4 mph 23.0 mph N/A   Overcast
9:15 AM 44.6 °F 36.9 °F 32.0 °F 61% 30.04 in 10.0 mi SSW 18.4 mph 26.5 mph N/A   Overcast
9:35 AM 44.6 °F 37.4 °F 32.0 °F 61% 30.04 in 10.0 mi SSW 16.1 mph 19.6 mph N/A   Overcast
9:55 AM 44.6 °F 38.4 °F 32.0 °F 61% 30.05 in 10.0 mi SW 12.7 mph 23.0 mph N/A   Overcast
10:15 AM 44.6 °F 38.8 °F 32.0 °F 61% 30.06 in 10.0 mi SSW 11.5 mph 24.2 mph N/A   Mostly Cloudy
10:35 AM 44.6 °F 38.8 °F 32.0 °F 61% 30.06 in 10.0 mi SSW 11.5 mph 23.0 mph N/A   Scattered Clouds
10:55 AM 46.4 °F 41.5 °F 32.0 °F 57% 30.05 in 10.0 mi SSW 10.4 mph 19.6 mph N/A   Scattered Clouds
11:15 AM 46.4 °F 41.1 °F 32.0 °F 57% 30.04 in 10.0 mi SW 11.5 mph 24.2 mph N/A   Mostly Cloudy
11:35 AM 46.4 °F 41.5 °F 32.0 °F 57% 30.04 in 10.0 mi SW 10.4 mph 20.7 mph N/A   Mostly Cloudy
11:55 AM 46.4 °F 41.1 °F 32.0 °F 57% 30.04 in 10.0 mi WSW 11.5 mph 24.2 mph N/A   Mostly Cloudy
12:15 PM 46.4 °F 39.2 °F 32.0 °F 57% 30.05 in 10.0 mi SW 18.4 mph 25.3 mph N/A   Overcast
12:35 PM 46.4 °F 41.5 °F 32.0 °F 57% 30.05 in 10.0 mi SW 10.4 mph 26.5 mph N/A   Overcast
12:55 PM 46.4 °F 39.8 °F 32.0 °F 57% 30.05 in 10.0 mi SW 16.1 mph 23.0 mph N/A   Mostly Cloudy
1:15 PM 46.4 °F 40.7 °F 32.0 °F 57% 30.06 in 10.0 mi SW 12.7 mph 21.9 mph N/A   Mostly Cloudy
1:35 PM 46.4 °F 41.9 °F 32.0 °F 57% 30.08 in 10.0 mi SW 9.2 mph 18.4 mph N/A   Overcast
1:55 PM 46.4 °F 40.1 °F 32.0 °F 57% 30.08 in 10.0 mi SW 15.0 mph 25.3 mph N/A   Mostly Cloudy
2:15 PM 46.4 °F 40.1 °F 32.0 °F 57% 30.09 in 10.0 mi WSW 15.0 mph 19.6 mph N/A   Mostly Cloudy
2:35 PM 46.4 °F 45.2 °F 32.0 °F 57% 30.11 in 10.0 mi WSW 3.5 mph 20.7 mph N/A   Mostly Cloudy
2:55 PM 46.4 °F 40.7 °F 32.0 °F 57% 30.13 in 10.0 mi WSW 12.7 mph 19.6 mph N/A   Mostly Cloudy
3:15 PM 46.4 °F 42.4 °F 32.0 °F 57% 30.14 in 10.0 mi SW 8.1 mph - N/A   Mostly Cloudy
3:35 PM 46.4 °F 42.9 °F 32.0 °F 57% 30.16 in 10.0 mi SW 6.9 mph - N/A   Overcast
3:55 PM 44.6 °F 39.7 °F 32.0 °F 61% 30.17 in 10.0 mi WSW 9.2 mph 16.1 mph N/A   Overcast
4:15 PM 44.6 °F 40.2 °F 32.0 °F 61% 30.18 in 10.0 mi SW 8.1 mph 16.1 mph N/A   Overcast
4:35 PM 44.6 °F 39.2 °F 32.0 °F 61% 30.19 in 10.0 mi WSW 10.4 mph 18.4 mph N/A   Overcast
4:55 PM 44.6 °F 38.4 °F 32.0 °F 61% 30.20 in 10.0 mi WSW 12.7 mph - N/A   Mostly Cloudy
5:10 PM 44.6 °F 39.7 °F 32.0 °F 61% 30.19 in 10.0 mi SW 9.2 mph - N/A   Mostly Cloudy
5:35 PM 44.6 °F 40.7 °F 32.0 °F 61% 30.22 in 10.0 mi SW 6.9 mph - N/A   Overcast
5:55 PM 44.6 °F 42.2 °F 32.0 °F 61% 30.23 in 10.0 mi NW 4.6 mph 16.1 mph N/A   Mostly Cloudy
6:15 PM 41.0 °F 36.4 °F 33.8 °F 76% 30.24 in 10.0 mi North 6.9 mph - N/A   Scattered Clouds
6:35 PM 41.0 °F 38.0 °F 33.8 °F 76% 30.25 in 10.0 mi NNW 4.6 mph - N/A   Scattered Clouds
6:55 PM 39.2 °F 37.0 °F 33.8 °F 81% 30.26 in 10.0 mi NW 3.5 mph - N/A   Partly Cloudy
7:15 PM 37.4 °F - 33.8 °F 87% 30.28 in 10.0 mi Calm Calm - N/A   Mostly Cloudy
7:35 PM 37.4 °F 32.8 °F 33.8 °F 87% 30.29 in 10.0 mi NW 5.8 mph - N/A   Overcast
7:55 PM 37.4 °F 32.1 °F 33.8 °F 87% 30.29 in 10.0 mi NNE 6.9 mph - N/A   Mostly Cloudy
8:10 PM 39.2 °F 34.2 °F 32.0 °F 75% 30.30 in 10.0 mi West 6.9 mph - N/A   Mostly Cloudy
8:35 PM 41.0 °F 36.4 °F 32.0 °F 70% 30.31 in 10.0 mi West 6.9 mph - N/A   Mostly Cloudy
8:55 PM 41.0 °F 37.1 °F 32.0 °F 70% 30.31 in 10.0 mi West 5.8 mph - N/A   Overcast
9:15 PM 41.0 °F 37.1 °F 32.0 °F 70% 30.34 in 10.0 mi WNW 5.8 mph - N/A   Overcast
9:35 PM 42.8 °F 41.1 °F 32.0 °F 66% 30.35 in 10.0 mi West 3.5 mph - N/A   Overcast
9:55 PM 39.2 °F - 32.0 °F 75% 30.36 in 10.0 mi Calm Calm - N/A   Overcast
10:15 PM 37.4 °F 34.9 °F 32.0 °F 81% 30.37 in 10.0 mi West 3.5 mph - N/A   Overcast
10:35 PM 37.4 °F 33.8 °F 32.0 °F 81% 30.38 in 10.0 mi West 4.6 mph - N/A   Overcast
10:55 PM 39.2 °F - 32.0 °F 75% 30.38 in 10.0 mi Calm Calm - N/A   Overcast
11:10 PM 41.0 °F 35.2 °F 32.0 °F 70% 30.39 in 10.0 mi WSW 9.2 mph - N/A   Overcast
11:35 PM 39.2 °F 34.2 °F 32.0 °F 75% 30.39 in 10.0 mi SW 6.9 mph - N/A   Mostly Cloudy
11:55 PM 39.2 °F 33.0 °F 32.0 °F 75% 30.39 in 10.0 mi SW 9.2 mph 17.3 mph N/A   Partly Cloudy